パンスターズ彗星

C/2019 A5 ( PanSTARRS )

English version
Home page
Updated on January 18, 2019

---------------------------------------------------------------------

・ プロフィール

発見日 2019年1月4日
発見光度 20.4等
発見者 Pan-STARRS 1 telescope (Haleakala)

・ 軌道要素

T 2017 Oct. 13.97678 TT                                 MPCW
q   4.5372526            (2000.0)            P               Q
                   Peri.  287.08194     +0.01480129     -0.91025414
                   Node   149.96859     +0.87634901     +0.21106986
e   1.0            Incl.   55.76996     -0.48144921     +0.35621188
From 20 observations 2019 Jan. 4-17.

・ 光度変化

        m1 = 9.5 + 5 logΔ + 10.0 log r

---------------------------------------------------------------------

軌道要素はM.P.E.C. 2019-B45に掲載されたものです。
光度グラフはComet for Windowsで作成したものです。

---------------------------------------------------------------------

Copyright(C) Seiichi Yoshida (comet@aerith.net). All rights reserved.